Miscellaneous Local Product
Issued by NWS North Platte, NE

Home | Current Version | Previous Version | Text Only | Print | Product List | Glossary On
Versions: 1 2 3 4 5 6 7 8 9 10 11 12 13 14 15 16 17 18 19 20 21 22 23 24 25 26 27 28 29 30 31 32 33 34 35 36 37 38 39 40 41 42 43 44 45 46 47 48 49 50
000
AXUS43 KLBF 270010
MISLBF


WESTERN AND NORTH CENTRAL NEBRASKA HOURLY WEATHER ROUNDUP
NATIONAL WEATHER SERVICE NORTH PLATTE NE
700 PM CDT SAT JUL 26 2014

***STATIONS NOT REPORTING VARIABLES SUCH AS SKY/WEATHER OR
PRESSURE ARE PROVIDED BY THE NEBRASKA DEPARTMENT OF
ROADS...RAWS...AND APRS NETWORKS...AND ARE NOT UNDER
NATIONAL WEATHER SERVICE QUALITY CONTROL***

...OBSERVATIONS IN AND NEAR THE EASTERN PANHANDLE OF NEBRASKA...

CITY           SKY/WX    TMP DP  RH WIND       PRES   REMARKS
PINE RIDGE     SUNNY     82  48  30 NE8       30.08R
CHADRON        SUNNY     86  42  21 NE10      30.05S
ALLIANCE       SUNNY     86  44  23 NE8       30.09R
SIDNEY         SUNNY     88  48  25 NE10      30.11R
WHITECLAY        N/A     82  45  27 N6          N/A
RUSHVILLE        N/A     88  32  14 NE14        N/A
GORDON           N/A     87  45  22 E8          N/A
LISCO            N/A     91  41  17 N12         N/A
BIG SPRINGS      N/A     83  67  58 E12         N/A
$$

...OBSERVATIONS IN NORTH CENTRAL NEBRASKA...

CITY           SKY/WX    TMP DP  RH WIND       PRES   REMARKS
VALENTINE      SUNNY     86  45  23 NW10      30.02S
THEDFORD       SUNNY     81  64  56 N7        30.04S
AINSWORTH      SUNNY     82  60  47 N10       30.02R
O`NEILL        SUNNY     84  58  41 N8        29.96S
ORD            SUNNY     84  66  54 N8        29.94R
BROKEN BOW     SUNNY     83  63  50 N12       29.98S
BROWNLEE         N/A     88  56  33 N13         N/A
SPRINGVIEW       N/A     84  65  52 CALM        N/A
DUNNING          N/A     82  63  51 N9          N/A
ROSE             N/A     87  65  49 W9          N/A
NEWPORT          N/A     85  58  40 E3          N/A
SARGENT          N/A     85  65  51 CALM        N/A
COMSTOCK         N/A     89  71  53 N8          N/A  HX  95
CHAMBERS         N/A     90  64  41 N3          N/A  HX  91
$$

...OBSERVATIONS IN SOUTHWEST NEBRASKA AND FAR NORTHEAST COLORADO...

CITY           SKY/WX    TMP DP  RH WIND       PRES   REMARKS
WRAY             N/A     87  64  44 NE15G25   30.05R
HOLYOKE        FAIR      84  64  51 E12       30.08R
IMPERIAL       LGT RAIN  81  64  56 NE13      30.05R
OGALLALA       SUNNY     82  63  51 E13G20    30.06R
NORTH PLATTE   SUNNY     83  63  50 NE10      30.01R
MCCOOK         MOSUNNY   87  66  49 NE15      29.99R
LEXINGTON      MOSUNNY   84  70  61 N7        29.97R
PAXTON           N/A     82  67  60 N9          N/A
SUTHERLAND       N/A     88  70  54 NE7         N/A  HX  92
BRADY            N/A     84  65  52 CALM        N/A
GOTHENBURG       N/A     84  63  49 N13         N/A
CALLAWAY         N/A     83  70  65 NE7         N/A
$$

...SOME WEATHER OBSERVATIONS FROM AROUND THE REGION...

CITY           SKY/WX    TMP DP  RH WIND       PRES   REMARKS
DENVER         CLOUDY    79  53  40 S16       30.20S
LARAMIE        MOSUNNY   79  47  32 CALM      30.28R
CHEYENNE       MOSUNNY   81  49  32 S12G18    30.23R
SCOTTSBLUFF    SUNNY     89  49  25 E8        30.08R
RAPID CITY     SUNNY     81  45  28 N17G24    30.06S
PIERRE         SUNNY     84  46  26 NW18G25   29.95R
WINNER         FAIR      88  47  24 N12       29.97S
SIOUX FALLS    SUNNY     81  65  58 NW8       29.89S
OMAHA          MOSUNNY   87  72  60 NE5       29.83R HX  93
GRAND ISLAND   SUNNY     87  73  62 N9        29.91R HX  94
KANSAS CITY    MOSUNNY   88  76  67 S6        29.81F HX  99
WICHITA        MOSUNNY   99  61  28 SW10      29.81S HX  99
HAYS           SUNNY     99  64  32 CALM      29.87R HX 101
LIBERAL        SUNNY    102  52  18 SW3       29.91S HX 100
GOODLAND       SUNNY     91  52  26 NE13      30.04R
$$



USA.gov is the U.S. government's official web portal to all federal, state and local government web resources and services.